This is the latest recevied weather packets stored in our database for station/object NK7E. If no packets are shown the sender has not sent any weather packets the latest 1 day(s).
| Time | Temp. | Humidity | Pressure | Rain* | Wind** | Luminosity | Snow |
|---|---|---|---|---|---|---|---|
| 1778019015 | 23.33° C | 31% | 1010.6 hPa | 0 mm | 2.24 m/s, 225° | 167 W/m² | - |
| 1778018415 | 23.33° C | 32% | 1010.7 hPa | 0 mm | 1.34 m/s, 203° | 927 W/m² | - |
| 1778017815 | 22.78° C | 34% | 1010.8 hPa | 0 mm | 3.13 m/s, 225° | 248 W/m² | - |
| 1778017215 | 23.89° C | 31% | 1010.9 hPa | 0 mm | 3.13 m/s, 203° | 151 W/m² | - |
| 1778016615 | 23.89° C | 30% | 1011 hPa | 0 mm | 2.68 m/s, 248° | 910 W/m² | - |
| 1778016015 | 23.89° C | 30% | 1011.2 hPa | 0 mm | 3.58 m/s, 225° | 915 W/m² | - |
| 1778015420 | 23.89° C | 26% | 1011.2 hPa | 0 mm | 3.13 m/s, 225° | 929 W/m² | - |
| 1778014815 | 23.89° C | 29% | 1011.4 hPa | 0 mm | 3.58 m/s, 225° | 1030 W/m² | - |
| 1778014215 | 23.89° C | 29% | 1011.4 hPa | 0 mm | 3.58 m/s, 248° | 1031 W/m² | - |
| 1778013615 | 23.33° C | 29% | 1011.4 hPa | 0 mm | 3.13 m/s, 248° | 1112 W/m² | - |
| 1778013016 | 23.33° C | 31% | 1011.4 hPa | 0 mm | 4.47 m/s, 248° | 1073 W/m² | - |
| 1778012415 | 23.33° C | 33% | 1011.5 hPa | 0 mm | 3.13 m/s, 225° | 1283 W/m² | - |
| 1778011815 | 23.33° C | 39% | 1011.5 hPa | 0 mm | 4.47 m/s, 203° | 1105 W/m² | - |
| 1778011215 | 21.67° C | 39% | 1011.5 hPa | 0 mm | 3.58 m/s, 248° | 1085 W/m² | - |
| 1778010615 | 21.11° C | 50% | 1011.7 hPa | 0 mm | 1.34 m/s, 293° | 409 W/m² | - |
| 1778010015 | 20.56° C | 52% | 1011.6 hPa | 0 mm | 1.34 m/s, 293° | 270 W/m² | - |
| 1778009415 | 21.11° C | 51% | 1011.8 hPa | 0 mm | 0.45 m/s, 248° | 238 W/m² | - |
| 1778008815 | 21.11° C | 51% | 1011.8 hPa | 0 mm | 0.45 m/s, 203° | 525 W/m² | - |
| 1778008215 | 21.67° C | 49% | 1012 hPa | 0 mm | 0.89 m/s, 203° | 253 W/m² | - |
| 1778007615 | 21.11° C | 51% | 1012.1 hPa | 0 mm | 0.89 m/s, 23° | 1172 W/m² | - |
| 1778007015 | 21.11° C | 52% | 1012.2 hPa | 0 mm | 1.34 m/s, 293° | 767 W/m² | - |
| 1778006415 | 20.56° C | 54% | 1012.6 hPa | 0 mm | 0.89 m/s, 203° | 929 W/m² | - |
| 1778005815 | 20° C | 55% | 1012.5 hPa | 0 mm | 1.34 m/s, 270° | 1232 W/m² | - |
| 1778005215 | 20° C | 56% | 1012.7 hPa | 0 mm | 0.89 m/s, 248° | 325 W/m² | - |
| 1778004615 | 19.44° C | 59% | 1012.7 hPa | 0 mm | 0.45 m/s, 203° | 354 W/m² | - |
* Rain latest hour (hover to see other rain measurements)
** Current wind speed in m/s (hover to see current wind gust speed)